sat.trackr.live / text

‹ back to catalog

YUNYAO-1 45

NORAD 63346 · 2025-059C

PAYLOAD ACTIVE UNKNOWN

§ Identity

Operator
Country
PRC
Launch date
2025-03-21
Launch site
JSC
Launch vehicle
Mass (kg)
RCS (m²)

External: N2YO · Heavens-Above · Gunter

§ Orbital elements

Epoch: 2026-09-21T22:21:05.578848Z

Period
95.27 min
Inclination
97.6153°
Eccentricity
0.0015621
Mean motion
15.11503630 rev/d
Perigee alt
520.8 km
Apogee alt
542.4 km
Semi-major
6,909.8 km
B*
1.3755e-4
RAAN
86.0083°
Arg perigee
180.0848°
Mean anomaly
180.0382°
Rev number
8,291

§ Raw data

YUNYAO-1 451 63346U 25059C   26264.93131457  .00002269  00000+0  13755-3 0  99982 63346  97.6153  86.0083 0015621 180.0848 180.0382 15.11503630 82911

JSON: /api/v1/satellites/63346 · /tle

For live sub-satellite position, see the globe view (requires WebGL).

§ Visibility from observer

Set your observer location to see the next 7 days of passes ≥ 10°. The values pass through the URL so the page stays shareable.

No JS? Fill the form by hand. The geolocation button needs JavaScript.